| time (UTC) | temp F | wind direction | speed MPH | gust MPH | rain 1hr in | rain 24hr in | rain mn in | humidity % | barometer mb |
| 20260505183017 | 57 | 0 | 0.0 | 0.0 | 0.01 | 0.10 | 0.06 | 88 | 1006.8 |
| 20260505182517 | 57 | 0 | 0.0 | 0.0 | 0.01 | 0.11 | 0.06 | 88 | 1006.7 |
| 20260505182016 | 57 | 0 | 0.0 | 0.0 | 0.01 | 0.11 | 0.06 | 88 | 1006.6 |
| 20260505181516 | 58 | 0 | 0.0 | 0.0 | 0.00 | 0.12 | 0.06 | 89 | 1006.5 |
| 20260505181016 | 58 | 0 | 0.0 | 0.0 | 0.00 | 0.12 | 0.06 | 89 | 1006.5 |
| 20260505180517 | 58 | 0 | 0.0 | 0.0 | 0.01 | 0.12 | 0.06 | 90 | 1006.4 |
| 20260505180016 | 58 | 0 | 0.0 | 0.0 | 0.01 | 0.12 | 0.06 | 90 | 1006.4 |
| 20260505175017 | 59 | 0 | 0.0 | 0.0 | 0.01 | 0.12 | 0.06 | 90 | 1006.3 |
| 20260505174516 | 59 | 0 | 0.0 | 0.0 | 0.01 | 0.12 | 0.06 | 90 | 1006.3 |
| 20260505174016 | 59 | 0 | 0.0 | 0.0 | 0.01 | 0.12 | 0.06 | 90 | 1006.4 |
| 20260505173516 | 59 | 0 | 0.0 | 0.0 | 0.01 | 0.12 | 0.06 | 90 | 1006.5 |
| 20260505173017 | 59 | 0 | 0.0 | 0.0 | 0.01 | 0.12 | 0.06 | 90 | 1006.4 |
| 20260505172517 | 59 | 0 | 0.0 | 0.0 | 0.01 | 0.12 | 0.06 | 90 | 1006.4 |
| 20260505172017 | 60 | 0 | 0.0 | 0.0 | 0.01 | 0.12 | 0.06 | 90 | 1006.5 |
| 20260505171516 | 60 | 0 | 0.0 | 0.0 | 0.01 | 0.12 | 0.06 | 90 | 1006.4 |
| 20260505171016 | 60 | 0 | 0.0 | 0.0 | 0.01 | 0.12 | 0.06 | 90 | 1006.6 |
| 20260505170516 | 60 | 0 | 0.0 | 0.0 | 0.00 | 0.11 | 0.05 | 90 | 1006.5 |
| 20260505170017 | 60 | 0 | 0.0 | 0.0 | 0.00 | 0.11 | 0.05 | 90 | 1006.6 |
| 20260505165516 | 60 | 0 | 0.0 | 0.0 | 0.00 | 0.11 | 0.05 | 89 | 1006.6 |
| 20260505165017 | 60 | 0 | 0.0 | 0.0 | 0.00 | 0.11 | 0.05 | 88 | 1006.8 |
| 20260505164516 | 60 | 0 | 0.0 | 0.0 | 0.00 | 0.11 | 0.05 | 88 | 1006.9 |
| 20260505164016 | 60 | 0 | 0.0 | 0.0 | 0.00 | 0.11 | 0.05 | 87 | 1006.8 |
| 20260505163516 | 61 | 0 | 0.0 | 0.0 | 0.00 | 0.11 | 0.05 | 87 | 1006.8 |
| 20260505163017 | 61 | 0 | 0.0 | 0.0 | 0.00 | 0.11 | 0.05 | 86 | 1006.8 |
| 20260505162516 | 61 | 0 | 0.0 | 0.0 | 0.00 | 0.11 | 0.05 | 86 | 1006.9 |
| 20260505161516 | 61 | 0 | 0.0 | 0.0 | 0.00 | 0.11 | 0.05 | 85 | 1006.9 |
| 20260505161016 | 61 | 0 | 0.0 | 0.0 | 0.00 | 0.11 | 0.05 | 85 | 1006.8 |
| 20260505160516 | 62 | 0 | 0.0 | 0.0 | 0.00 | 0.11 | 0.05 | 84 | 1006.7 |
| 20260505153017 | 63 | 0 | 0.0 | 0.0 | 0.00 | 0.11 | 0.05 | 82 | 1006.9 |
| 20260505152517 | 63 | 0 | 0.0 | 0.0 | 0.00 | 0.11 | 0.05 | 83 | 1006.8 |
| 20260505152016 | 63 | 0 | 0.0 | 0.0 | 0.00 | 0.11 | 0.05 | 82 | 1006.8 |
| 20260505151516 | 63 | 0 | 0.0 | 0.0 | 0.00 | 0.11 | 0.05 | 82 | 1006.8 |
| 20260505151016 | 64 | 0 | 0.0 | 0.0 | 0.00 | 0.11 | 0.05 | 83 | 1006.9 |
| 20260505150516 | 63 | 0 | 0.0 | 0.0 | 0.00 | 0.11 | 0.05 | 83 | 1006.8 |
| 20260505140517 | 62 | 0 | 0.0 | 0.0 | 0.00 | 0.11 | 0.05 | 87 | 1006.8 |
| 20260505125017 | 65 | 0 | 0.0 | 0.0 | 0.00 | 0.11 | 0.05 | 79 | 1007.3 |
| 20260505124517 | 65 | 0 | 0.0 | 0.0 | 0.00 | 0.11 | 0.05 | 81 | 1007.3 |
| 20260505124016 | 65 | 0 | 0.0 | 0.0 | 0.00 | 0.11 | 0.05 | 82 | 1007.2 |
| 20260505123516 | 66 | 0 | 0.0 | 0.0 | 0.00 | 0.11 | 0.05 | 83 | 1007.1 |
| 20260505123017 | 66 | 0 | 0.0 | 0.0 | 0.00 | 0.11 | 0.05 | 84 | 1007.3 |
| 20260505122517 | 66 | 0 | 0.0 | 0.0 | 0.00 | 0.11 | 0.05 | 84 | 1007.3 |
| 20260505121516 | 67 | 0 | 0.0 | 0.0 | 0.00 | 0.11 | 0.05 | 82 | 1007.4 |
| 20260505121017 | 68 | 0 | 0.0 | 0.0 | 0.00 | 0.11 | 0.05 | 81 | 1007.6 |
| 20260505120516 | 68 | 0 | 0.0 | 0.0 | 0.00 | 0.11 | 0.05 | 79 | 1007.6 |
| 20260505115016 | 68 | 0 | 0.0 | 0.0 | 0.00 | 0.11 | 0.05 | 78 | 1007.8 |
| 20260505114516 | 68 | 0 | 0.0 | 0.0 | 0.00 | 0.11 | 0.05 | 78 | 1007.8 |
| 20260505114017 | 68 | 0 | 0.0 | 0.0 | 0.00 | 0.11 | 0.05 | 78 | 1007.8 |
| 20260505113517 | 68 | 0 | 0.0 | 0.0 | 0.00 | 0.11 | 0.05 | 77 | 1007.8 |
| 20260505113016 | 69 | 0 | 0.0 | 0.0 | 0.00 | 0.11 | 0.05 | 81 | 1007.8 |
| 20260505112516 | 69 | 0 | 0.0 | 0.0 | 0.00 | 0.11 | 0.05 | 79 | 1007.8 |
| 20260505112017 | 68 | 0 | 0.0 | 0.0 | 0.00 | 0.11 | 0.05 | 81 | 1007.7 |
| 20260505111517 | 69 | 0 | 0.0 | 0.0 | 0.00 | 0.11 | 0.05 | 81 | 1007.8 |
| 20260505111016 | 68 | 0 | 0.0 | 0.0 | 0.00 | 0.11 | 0.05 | 80 | 1007.7 |
| 20260505102016 | 66 | 0 | 0.0 | 0.0 | 0.00 | 0.11 | 0.05 | 83 | 1007.6 |
| 20260505101516 | 66 | 0 | 0.0 | 0.0 | 0.00 | 0.11 | 0.05 | 83 | 1007.6 |
| 20260505101017 | 65 | 0 | 0.0 | 0.0 | 0.00 | 0.11 | 0.05 | 83 | 1007.6 |
| 20260505100016 | 65 | 0 | 0.0 | 0.0 | 0.00 | 0.11 | 0.05 | 85 | 1007.7 |
| 20260505095016 | 67 | 0 | 0.0 | 0.0 | 0.01 | 0.11 | 0.05 | 83 | 1008.0 |
| 20260505094516 | 67 | 0 | 0.0 | 0.0 | 0.01 | 0.11 | 0.05 | 83 | 1008.0 |
| 20260505094016 | 67 | 0 | 0.0 | 0.0 | 0.01 | 0.11 | 0.05 | 83 | 1008.2 |
| 20260505093517 | 67 | 0 | 0.0 | 0.0 | 0.01 | 0.11 | 0.05 | 82 | 1008.2 |
| 20260505093016 | 68 | 0 | 0.0 | 0.0 | 0.01 | 0.11 | 0.05 | 82 | 1008.2 |
| 20260505092516 | 68 | 0 | 0.0 | 0.0 | 0.01 | 0.11 | 0.05 | 83 | 1008.3 |
| 20260505092017 | 67 | 0 | 0.0 | 0.0 | 0.01 | 0.11 | 0.05 | 83 | 1008.3 |
| 20260505091517 | 67 | 0 | 0.0 | 0.0 | 0.01 | 0.11 | 0.05 | 86 | 1008.3 |
| 20260505091016 | 66 | 0 | 0.0 | 0.0 | 0.01 | 0.11 | 0.05 | 86 | 1008.3 |
| 20260505090517 | 65 | 0 | 0.0 | 0.0 | 0.01 | 0.11 | 0.05 | 85 | 1008.2 |
| 20260505090016 | 65 | 0 | 0.0 | 0.0 | 0.01 | 0.11 | 0.05 | 87 | 1008.1 |
| 20260505085516 | 64 | 0 | 0.0 | 0.0 | 0.00 | 0.10 | 0.04 | 86 | 1008.2 |
| 20260505084516 | 65 | 0 | 0.0 | 0.0 | 0.00 | 0.10 | 0.04 | 86 | 1008.3 |
| 20260505084016 | 66 | 0 | 0.0 | 0.0 | 0.00 | 0.10 | 0.04 | 84 | 1008.5 |
| 20260505083517 | 65 | 0 | 0.0 | 0.0 | 0.00 | 0.10 | 0.04 | 87 | 1008.4 |
| 20260505083016 | 64 | 0 | 0.0 | 0.0 | 0.00 | 0.10 | 0.04 | 87 | 1008.2 |
| 20260505082516 | 63 | 0 | 0.0 | 0.0 | 0.00 | 0.10 | 0.04 | 88 | 1008.2 |
| 20260505082017 | 62 | 0 | 0.0 | 0.0 | 0.00 | 0.10 | 0.04 | 88 | 1008.2 |
| 20260505081517 | 62 | 0 | 0.0 | 0.0 | 0.00 | 0.10 | 0.04 | 89 | 1008.3 |
| 20260505080517 | 62 | 0 | 0.0 | 0.0 | 0.00 | 0.10 | 0.04 | 89 | 1008.3 |
| 20260505080016 | 61 | 0 | 0.0 | 0.0 | 0.00 | 0.10 | 0.04 | 90 | 1008.2 |
| 20260505075517 | 61 | 0 | 0.0 | 0.0 | 0.00 | 0.10 | 0.04 | 89 | 1008.2 |
| 20260505075016 | 61 | 0 | 0.0 | 0.0 | 0.00 | 0.10 | 0.04 | 89 | 1008.2 |
| 20260505074516 | 61 | 0 | 0.0 | 0.0 | 0.01 | 0.10 | 0.04 | 90 | 1008.4 |
| 20260505074016 | 60 | 0 | 0.0 | 0.0 | 0.01 | 0.10 | 0.04 | 91 | 1008.2 |
| 20260505073516 | 59 | 0 | 0.0 | 0.0 | 0.01 | 0.10 | 0.04 | 91 | 1008.1 |
| 20260505073016 | 58 | 0 | 0.0 | 0.0 | 0.01 | 0.10 | 0.04 | 91 | 1008.1 |
| 20260505072516 | 58 | 0 | 0.0 | 0.0 | 0.01 | 0.10 | 0.04 | 91 | 1008.2 |
| 20260505072016 | 58 | 0 | 0.0 | 0.0 | 0.01 | 0.10 | 0.04 | 91 | 1008.3 |
| 20260505071516 | 57 | 0 | 0.0 | 0.0 | 0.01 | 0.10 | 0.04 | 90 | 1008.2 |
| 20260505070516 | 57 | 0 | 0.0 | 0.0 | 0.01 | 0.10 | 0.04 | 89 | 1008.1 |
| 20260505070017 | 56 | 0 | 0.0 | 0.0 | 0.01 | 0.10 | 0.04 | 89 | 1008.2 |
| 20260505065517 | 56 | 0 | 0.0 | 0.0 | 0.01 | 0.10 | 0.04 | 88 | 1008.1 |
| 20260505065016 | 55 | 0 | 0.0 | 0.0 | 0.00 | 0.09 | 0.03 | 86 | 1008.1 |
| 20260505064516 | 54 | 0 | 0.0 | 0.0 | 0.00 | 0.09 | 0.03 | 85 | 1008.1 |
| 20260505064016 | 54 | 0 | 0.0 | 0.0 | 0.00 | 0.09 | 0.03 | 81 | 1007.9 |
| 20260505063516 | 53 | 0 | 0.0 | 0.0 | 0.00 | 0.09 | 0.03 | 77 | 1007.7 |
| 20260505063016 | 52 | 0 | 0.0 | 0.0 | 0.00 | 0.09 | 0.03 | 73 | 1007.7 |
| 20260505062516 | 52 | 0 | 0.0 | 0.0 | 0.00 | 0.09 | 0.03 | 70 | 1007.7 |
| 20260505062016 | 51 | 0 | 0.0 | 0.0 | 0.00 | 0.09 | 0.03 | 69 | 1007.6 |
| 20260505061517 | 51 | 0 | 0.0 | 0.0 | 0.00 | 0.09 | 0.03 | 67 | 1007.7 |
| 20260505061017 | 51 | 0 | 0.0 | 0.0 | 0.00 | 0.09 | 0.03 | 67 | 1007.5 |
| 20260505060516 | 50 | 0 | 0.0 | 0.0 | 0.00 | 0.09 | 0.03 | 66 | 1007.4 |
| 20260505055516 | 50 | 0 | 0.0 | 0.0 | 0.00 | 0.09 | 0.03 | 66 | 1007.4 |
| 20260505055016 | 49 | 0 | 0.0 | 0.0 | 0.00 | 0.09 | 0.03 | 66 | 1007.4 |
| 20260505054516 | 49 | 0 | 0.0 | 0.0 | 0.00 | 0.09 | 0.03 | 66 | 1007.3 |
| 20260505054016 | 48 | 0 | 0.0 | 0.0 | 0.00 | 0.09 | 0.03 | 66 | 1007.2 |
| 20260505053517 | 47 | 0 | 0.0 | 0.0 | 0.00 | 0.09 | 0.03 | 66 | 1006.9 |
| 20260505052544 | 46 | 0 | 0.0 | 0.0 | 0.00 | 0.09 | 0.03 | 67 | 1006.6 |
| 20260505052016 | 46 | 0 | 0.0 | 0.0 | 0.01 | 0.09 | 0.03 | 67 | 1006.6 |
| 20260505051516 | 45 | 0 | 0.0 | 0.0 | 0.01 | 0.09 | 0.03 | 68 | 1006.6 |
| 20260505051016 | 44 | 0 | 0.0 | 0.0 | 0.01 | 0.09 | 0.03 | 68 | 1006.6 |
| 20260505050516 | 44 | 0 | 0.0 | 0.0 | 0.01 | 0.09 | 0.03 | 68 | 1006.7 |
| 20260505041016 | 42 | 0 | 0.0 | 0.0 | 0.00 | 0.09 | 0.02 | 71 | 1006.5 |
| 20260505040517 | 42 | 0 | 0.0 | 0.0 | 0.00 | 0.09 | 0.02 | 71 | 1006.5 |
| 20260505040017 | 42 | 0 | 0.0 | 0.0 | 0.00 | 0.09 | 0.02 | 71 | 1006.6 |
| 20260505035516 | 43 | 0 | 0.0 | 0.0 | 0.00 | 0.09 | 0.02 | 71 | 1006.6 |
| 20260505035017 | 43 | 0 | 0.0 | 0.0 | 0.00 | 0.09 | 0.02 | 71 | 1006.7 |
| 20260505034516 | 43 | 0 | 0.0 | 0.0 | 0.00 | 0.09 | 0.02 | 70 | 1006.6 |
| 20260505034016 | 43 | 0 | 0.0 | 0.0 | 0.00 | 0.09 | 0.02 | 70 | 1006.6 |
| 20260505033516 | 43 | 0 | 0.0 | 0.0 | 0.00 | 0.09 | 0.02 | 71 | 1006.7 |
| 20260505033017 | 44 | 0 | 0.0 | 0.0 | 0.00 | 0.09 | 0.02 | 70 | 1006.8 |
| 20260505032516 | 43 | 0 | 0.0 | 0.0 | 0.00 | 0.09 | 0.02 | 71 | 1006.7 |
| 20260505032016 | 43 | 0 | 0.0 | 0.0 | 0.00 | 0.09 | 0.02 | 71 | 1006.6 |
| 20260505031520 | 43 | 0 | 0.0 | 0.0 | 0.00 | 0.09 | 0.02 | 72 | 1006.7 |
| 20260505030017 | 44 | 0 | 0.0 | 0.0 | 0.01 | 0.09 | 0.02 | 71 | 1006.9 |
| 20260505025016 | 44 | 0 | 0.0 | 0.0 | 0.01 | 0.09 | 0.02 | 71 | 1007.2 |
| 20260505024016 | 44 | 0 | 0.0 | 0.0 | 0.01 | 0.09 | 0.02 | 70 | 1007.2 |
| 20260505023516 | 44 | 0 | 0.0 | 0.0 | 0.01 | 0.09 | 0.02 | 71 | 1007.3 |
| 20260505023017 | 44 | 0 | 0.0 | 0.0 | 0.01 | 0.09 | 0.02 | 72 | 1007.4 |
| 20260505022517 | 44 | 0 | 0.0 | 0.0 | 0.01 | 0.09 | 0.02 | 72 | 1007.4 |
| 20260505022016 | 44 | 0 | 0.0 | 0.0 | 0.01 | 0.09 | 0.02 | 73 | 1007.5 |
| 20260505021016 | 45 | 0 | 0.0 | 0.0 | 0.01 | 0.09 | 0.02 | 73 | 1007.7 |
| 20260505020516 | 45 | 0 | 0.0 | 0.0 | 0.00 | 0.08 | 0.02 | 72 | 1007.8 |
| 20260505020016 | 45 | 0 | 0.0 | 0.0 | 0.00 | 0.08 | 0.02 | 72 | 1007.7 |
| 20260505015516 | 45 | 0 | 0.0 | 0.0 | 0.00 | 0.08 | 0.02 | 72 | 1007.7 |
| 20260505015016 | 46 | 0 | 0.0 | 0.0 | 0.00 | 0.08 | 0.02 | 71 | 1007.8 |
| 20260505014516 | 46 | 0 | 0.0 | 0.0 | 0.00 | 0.08 | 0.02 | 72 | 1007.7 |
| 20260505014016 | 46 | 0 | 0.0 | 0.0 | 0.00 | 0.08 | 0.02 | 73 | 1007.7 |
| 20260505013517 | 46 | 0 | 0.0 | 0.0 | 0.01 | 0.08 | 0.02 | 74 | 1007.7 |
| 20260505013016 | 46 | 0 | 0.0 | 0.0 | 0.01 | 0.08 | 0.02 | 74 | 1007.9 |
| 20260505012516 | 46 | 0 | 0.0 | 0.0 | 0.01 | 0.08 | 0.02 | 73 | 1007.8 |
| 20260505012017 | 47 | 0 | 0.0 | 0.0 | 0.01 | 0.08 | 0.02 | 73 | 1008.1 |
| 20260505011532 | 47 | 0 | 0.0 | 0.0 | 0.01 | 0.08 | 0.02 | 73 | 1008.0 |
| 20260505011016 | 47 | 0 | 0.0 | 0.0 | 0.01 | 0.08 | 0.02 | 73 | 1008.0 |
| 20260505010517 | 47 | 0 | 0.0 | 0.0 | 0.01 | 0.08 | 0.02 | 73 | 1008.0 |
| 20260505010016 | 47 | 0 | 0.0 | 0.0 | 0.01 | 0.08 | 0.02 | 73 | 1008.0 |
| 20260505005516 | 47 | 0 | 0.0 | 0.0 | 0.01 | 0.08 | 0.02 | 73 | 1008.0 |
| 20260505004517 | 47 | 0 | 0.0 | 0.0 | 0.01 | 0.08 | 0.02 | 75 | 1008.2 |
| 20260505004017 | 48 | 0 | 0.0 | 0.0 | 0.01 | 0.08 | 0.02 | 76 | 1008.2 |
| 20260505003017 | 48 | 0 | 0.0 | 0.0 | 0.00 | 0.07 | 0.01 | 74 | 1008.5 |
| 20260505002516 | 48 | 0 | 0.0 | 0.0 | 0.00 | 0.07 | 0.01 | 74 | 1008.4 |
| 20260505002016 | 48 | 0 | 0.0 | 0.0 | 0.00 | 0.07 | 0.01 | 75 | 1008.4 |
| 20260505001517 | 48 | 0 | 0.0 | 0.0 | 0.00 | 0.07 | 0.01 | 75 | 1008.4 |
| 20260505001016 | 49 | 0 | 0.0 | 0.0 | 0.01 | 0.07 | 0.01 | 75 | 1008.4 |
| 20260505000517 | 49 | 0 | 0.0 | 0.0 | 0.01 | 0.07 | 0.01 | 76 | 1008.4 |
| 20260505000016 | 49 | 0 | 0.0 | 0.0 | 0.01 | 0.07 | 0.01 | 77 | 1008.6 |
| 20260504235517 | 49 | 0 | 0.0 | 0.0 | 0.01 | 0.07 | 0.01 | 77 | 1008.8 |
| 20260504235016 | 49 | 0 | 0.0 | 0.0 | 0.01 | 0.07 | 0.01 | 78 | 1008.9 |
| 20260504234017 | 49 | 0 | 0.0 | 0.0 | 0.01 | 0.07 | 0.01 | 77 | 1008.9 |
| 20260504233517 | 50 | 0 | 0.0 | 0.0 | 0.01 | 0.07 | 0.01 | 78 | 1009.1 |
| 20260504233016 | 50 | 0 | 0.0 | 0.0 | 0.01 | 0.07 | 0.01 | 79 | 1009.1 |
| 20260504232537 | 50 | 0 | 0.0 | 0.0 | 0.01 | 0.07 | 0.01 | 79 | 1009.1 |
| 20260504232016 | 50 | 0 | 0.0 | 0.0 | 0.01 | 0.07 | 0.01 | 79 | 1009.2 |
| 20260504231517 | 50 | 0 | 0.0 | 0.0 | 0.01 | 0.07 | 0.01 | 81 | 1009.2 |
| 20260504231017 | 51 | 0 | 0.0 | 0.0 | 0.00 | 0.06 | 0.00 | 82 | 1009.3 |
| 20260504230517 | 51 | 0 | 0.0 | 0.0 | 0.00 | 0.06 | 0.00 | 83 | 1009.3 |
| 20260504230016 | 51 | 0 | 0.0 | 0.0 | 0.00 | 0.06 | 0.00 | 83 | 1009.4 |
| 20260504225516 | 52 | 0 | 0.0 | 0.0 | 0.00 | 0.06 | 0.00 | 83 | 1009.5 |
| 20260504224516 | 52 | 0 | 0.0 | 0.0 | 0.01 | 0.06 | 0.00 | 80 | 1009.6 |
| 20260504224016 | 52 | 0 | 0.0 | 0.0 | 0.01 | 0.06 | 0.00 | 81 | 1009.6 |
| 20260504223516 | 52 | 0 | 0.0 | 0.0 | 0.01 | 0.06 | 0.00 | 81 | 1009.7 |
| 20260504223016 | 52 | 0 | 0.0 | 0.0 | 0.01 | 0.06 | 0.00 | 81 | 1009.8 |
| 20260504222516 | 52 | 0 | 0.0 | 0.0 | 0.01 | 0.06 | 0.00 | 81 | 1009.7 |
| 20260504221517 | 53 | 0 | 0.0 | 0.0 | 0.01 | 0.06 | 0.00 | 81 | 1009.8 |
| 20260504220517 | 53 | 0 | 0.0 | 0.0 | 0.01 | 0.06 | 0.00 | 81 | 1009.8 |
| 20260504220016 | 53 | 0 | 0.0 | 0.0 | 0.01 | 0.06 | 0.06 | 82 | 1009.9 |
| 20260504215516 | 53 | 0 | 0.0 | 0.0 | 0.01 | 0.06 | 0.06 | 82 | 1009.9 |
| 20260504215017 | 53 | 0 | 0.0 | 0.0 | 0.00 | 0.06 | 0.06 | 84 | 1010.0 |
| 20260504214516 | 54 | 0 | 0.0 | 0.0 | 0.00 | 0.06 | 0.06 | 84 | 1009.9 |
| 20260504214017 | 54 | 0 | 0.0 | 0.0 | 0.00 | 0.06 | 0.06 | 84 | 1009.9 |
| 20260504213517 | 54 | 0 | 0.0 | 0.0 | 0.01 | 0.06 | 0.06 | 85 | 1009.9 |
| 20260504213016 | 54 | 0 | 0.0 | 0.0 | 0.01 | 0.06 | 0.06 | 86 | 1010.0 |
| 20260504212516 | 55 | 0 | 0.0 | 0.0 | 0.01 | 0.06 | 0.06 | 87 | 1010.1 |
| 20260504212016 | 55 | 0 | 0.0 | 0.0 | 0.01 | 0.06 | 0.06 | 88 | 1010.1 |
| 20260504211516 | 56 | 0 | 0.0 | 0.0 | 0.01 | 0.06 | 0.06 | 88 | 1010.2 |
| 20260504211017 | 56 | 0 | 0.0 | 0.0 | 0.01 | 0.06 | 0.06 | 89 | 1010.3 |
| 20260504210516 | 56 | 0 | 0.0 | 0.0 | 0.01 | 0.06 | 0.06 | 89 | 1010.3 |
| 20260504210016 | 56 | 0 | 0.0 | 0.0 | 0.01 | 0.06 | 0.06 | 89 | 1010.2 |
| 20260504205516 | 56 | 0 | 0.0 | 0.0 | 0.01 | 0.06 | 0.06 | 89 | 1010.3 |
| 20260504204517 | 56 | 0 | 0.0 | 0.0 | 0.01 | 0.06 | 0.06 | 88 | 1010.3 |
| 20260504204017 | 56 | 0 | 0.0 | 0.0 | 0.01 | 0.06 | 0.06 | 88 | 1010.3 |
| 20260504203538 | 56 | 0 | 0.0 | 0.0 | 0.00 | 0.05 | 0.05 | 87 | 1010.2 |
| 20260504203017 | 56 | 0 | 0.0 | 0.0 | 0.00 | 0.05 | 0.05 | 86 | 1010.2 |
| 20260504202516 | 56 | 0 | 0.0 | 0.0 | 0.01 | 0.05 | 0.05 | 86 | 1010.3 |
| 20260504202016 | 56 | 0 | 0.0 | 0.0 | 0.01 | 0.05 | 0.05 | 86 | 1010.6 |
| 20260504201516 | 56 | 0 | 0.0 | 0.0 | 0.01 | 0.05 | 0.05 | 86 | 1010.8 |
| 20260504201017 | 56 | 0 | 0.0 | 0.0 | 0.01 | 0.05 | 0.05 | 86 | 1010.8 |
| 20260504200516 | 56 | 0 | 0.0 | 0.0 | 0.01 | 0.05 | 0.05 | 86 | 1010.9 |
| 20260504200016 | 56 | 0 | 0.0 | 0.0 | 0.02 | 0.05 | 0.05 | 87 | 1011.0 |
| 20260504195516 | 56 | 0 | 0.0 | 0.0 | 0.02 | 0.05 | 0.05 | 87 | 1011.0 |
| 20260504195016 | 56 | 0 | 0.0 | 0.0 | 0.02 | 0.05 | 0.05 | 87 | 1011.0 |
| 20260504194517 | 56 | 0 | 0.0 | 0.0 | 0.02 | 0.05 | 0.05 | 88 | 1011.1 |
| 20260504194016 | 57 | 0 | 0.0 | 0.0 | 0.02 | 0.05 | 0.05 | 88 | 1011.1 |
| 20260504193517 | 57 | 0 | 0.0 | 0.0 | 0.02 | 0.05 | 0.05 | 89 | 1011.2 |
| 20260504192516 | 57 | 0 | 0.0 | 0.0 | 0.02 | 0.04 | 0.04 | 90 | 1011.6 |
| 20260504192016 | 58 | 0 | 0.0 | 0.0 | 0.02 | 0.04 | 0.04 | 90 | 1011.7 |
| 20260504191516 | 58 | 0 | 0.0 | 0.0 | 0.04 | 0.04 | 0.04 | 90 | 1011.8 |
| 20260504191016 | 58 | 0 | 0.0 | 0.0 | 0.04 | 0.04 | 0.04 | 90 | 1011.7 |
| 20260504190516 | 59 | 0 | 0.0 | 0.0 | 0.04 | 0.04 | 0.04 | 90 | 1012.0 |
| 20260504190017 | 59 | 0 | 0.0 | 0.0 | 0.03 | 0.03 | 0.03 | 90 | 1011.9 |
| 20260504185516 | 59 | 0 | 0.0 | 0.0 | 0.03 | 0.03 | 0.03 | 90 | 1011.7 |
| 20260504185016 | 60 | 0 | 0.0 | 0.0 | 0.03 | 0.03 | 0.03 | 90 | 1011.6 |
| 20260504184516 | 60 | 0 | 0.0 | 0.0 | 0.03 | 0.03 | 0.03 | 89 | 1011.6 |
| 20260504184016 | 61 | 0 | 0.0 | 0.0 | 0.02 | 0.02 | 0.02 | 88 | 1011.5 |
| 20260504183517 | 62 | 0 | 0.0 | 0.0 | 0.02 | 0.02 | 0.02 | 86 | 1011.5 |